Temp
14 14 14 14 14 14 14 14 14 14 14 13 13 12 12 12 11 11 10 10 10 10 10 10 10 10 10 10 10 10 10 10 10 10 10 10 10 9 8 9 9 9 10 10
14 15 15 15 15 15 15 15 15 14 14 13 14 13 12 12 12 12 11 11 10 10 10 10 11 11 11 10 10 10 10 10 10 10 10 10 10 9 9 9 9 10 10 11
14 15 15 15 15 15 16 15 15 14 14 14 14 13 13 13 12 11 11 11 11 11 11 11 10 11 11 11 11 11 10 10 10 10 10 10 10 9 9 10 10 10 10 11
14 15 15 16 16 16 16 17 16 14 14 13 13 15 14 14 13 12 12 12 11 12 11 11 11 11 11 11 11 11 11 11 10 10 10 10 10 10 10 10 10 10 10 11
14 15 15 16 16 17 16 17 16 14 13 13 13 13 15 15 14 14 13 12 12 12 12 12 11 11 11 11 11 11 11 11 11 11 11 11 11 11 10 10 9 10 10 11
15 15 15 16 17 17 16 16 15 13 13 15 13 13 14 15 15 15 14 13 12 12 12 12 12 11 11 11 12 12 12 12 11 11 11 11 11 11 11 10 9 9 10 11
15 16 16 16 16 17 17 17 15 16 16 16 13 12 15 15 14 14 13 13 13 13 13 12 12 12 11 11 11 11 11 11 12 12 11 11 11 11 11 10 9 9 9 11
16 16 17 17 18 18 18 16 18 17 17 16 13 14 15 15 14 13 13 13 13 13 13 13 12 12 12 11 11 11 11 11 11 11 11 11 11 11 11 11 10 10 10 11
16 17 17 17 17 17 17 16 17 17 14 14 14 15 15 15 14 13 13 13 13 13 14 13 13 12 12 12 11 11 11 11 11 11 11 11 11 11 11 11 11 10 10 10
16 16 17 17 17 17 18 17 17 17 16 17 15 14 15 16 15 15 14 13 14 14 14 13 13 13 13 12 12 12 11 11 11 11 11 10 11 11 11 11 11 10 10 10
16 16 17 17 17 18 18 17 18 18 17 18 18 17 15 15 15 15 15 14 14 14 13 13 13 13 13 13 13 12 12 11 11 11 10 10 10 10 11 11 11 11 10 10
16 16 17 17 17 18 18 18 18 18 16 16 15 16 15 15 15 15 15 15 14 14 14 14 14 14 13 13 13 13 13 12 12 11 11 10 10 10 10 10 11 11 10 10
16 17 17 17 17 17 17 18 18 17 18 17 18 16 16 15 15 15 14 14 15 15 15 15 15 14 14 13 13 13 13 13 12 12 11 11 11 10 10 10 10 10 10 10
16 16 17 17 17 17 17 18 18 17 17 18 17 17 15 15 15 15 15 15 15 15 15 15 15 15 15 14 14 13 13 13 12 12 12 11 11 10 10 10 10 10 10 10
16 16 16 16 17 17 17 17 17 17 18 18 17 16 16 15 15 15 15 15 15 15 15 15 15 14 14 14 14 14 13 13 13 12 12 11 11 11 11 11 11 10 10 10
16 16 15 15 15 16 17 17 18 18 18 18 17 16 16 15 15 15 15 15 14 14 13 13 14 14 13 14 14 14 14 13 13 13 13 12 12 11 11 11 10 10 10 11
16 16 15 16 16 16 16 16 17 17 17 17 17 17 15 15 15 15 14 14 14 13 12 12 12 12 12 12 12 13 13 13 13 13 13 12 12 11 11 11 11 11 10 10
15 15 15 15 15 16 16 16 16 17 17 17 17 17 16 15 15 14 14 14 13 12 11 11 11 11 11 11 12 12 12 12 12 12 12 12 12 12 11 11 11 11 11 11
14 15 15 15 15 15 16 16 16 17 17 17 17 16 16 15 15 14 13 13 12 12 11 10 10 10 10 11 11 11 11 12 12 11 11 11 11 12 11 11 11 11 11 11
14 14 14 14 14 15 15 16 16 16 16 16 16 15 15 15 14 13 13 12 11 11 10 10 10 9 9 9 10 10 10 10 11 11 11 11 11 11 11 10 10 10 10 10
14 14 14 14 14 14 14 14 15 15 15 15 15 15 15 14 13 13 12 12 11 10 9 9 9 9 9 9 9 10 10 10 10 10 10 10 10 10 10 10 11 11 11 11
14 14 14 14 14 14 14 13 14 14 14 14 15 14 14 13 13 12 12 11 10 10 9 8 9 9 9 9 9 9 9 9 9 9 9 9 9 9 9 9 9 9 9 10
13 13 14 13 13 13 13 13 13 14 14 14 14 13 13 12 12 11 11 10 10 9 8 8 8 8 8 8 8 9 9 9 9 9 9 9 9 9 9 9 9 9 8 8
13 13 13 13 13 13 13 13 13 13 13 13 12 12 12 11 11 11 11 10 9 8 8 8 8 8 8 8 8 8 8 8 8 9 9 9 8 8 8 8 8 8 8 8
12 12 12 12 12 12 12 12 12 12 12 12 12 11 11 11 11 10 9 9 8 8 8 8 8 8 8 8 8 8 8 8 8 8 8 8 8 8 8 7 7 7 7 6
12 12 12 12 12 12 12 11 11 11 11 11 10 10 10 10 9 9 9 8 8 8 8 8 8 8 8 9 9 8 8 8 8 8 8 8 7 7 7 6 7 7 6 5
Height
3198 3199 3198 3199 3198 3198 3197 3196 3196 3197 3198 3199 3199 3201 3203 3205 3206 3207 3209 3211 3213 3215 3217 3219 3221 3223 3224 3225 3226 3227 3228 3230 3231 3232 3232 3232 3233 3233 3234 3234 3236 3237 3237 3237
3199 3199 3198 3198 3197 3197 3195 3195 3195 3196 3198 3198 3198 3199 3201 3203 3205 3207 3208 3210 3213 3215 3216 3218 3220 3222 3223 3225 3226 3227 3228 3229 3230 3231 3232 3232 3232 3232 3233 3234 3235 3236 3237 3237
3197 3199 3198 3197 3196 3196 3194 3193 3193 3195 3195 3196 3198 3199 3199 3201 3204 3206 3207 3208 3211 3213 3215 3218 3219 3221 3222 3224 3226 3227 3228 3229 3230 3230 3231 3231 3231 3232 3232 3233 3234 3236 3237 3236
3196 3197 3198 3197 3196 3195 3193 3192 3192 3192 3196 3198 3198 3199 3197 3198 3201 3203 3205 3206 3208 3210 3214 3216 3218 3220 3221 3223 3224 3226 3227 3227 3228 3229 3230 3230 3231 3231 3232 3233 3235 3235 3236 3236
3196 3196 3197 3197 3197 3194 3194 3193 3193 3194 3196 3197 3197 3199 3195 3196 3196 3197 3201 3204 3207 3210 3212 3214 3217 3218 3219 3220 3223 3224 3225 3225 3227 3228 3229 3229 3230 3231 3231 3232 3234 3235 3236 3236
3193 3195 3195 3197 3196 3194 3193 3193 3194 3195 3195 3196 3196 3198 3193 3192 3194 3197 3199 3201 3204 3207 3209 3212 3215 3216 3218 3218 3220 3222 3223 3224 3225 3227 3227 3228 3229 3230 3231 3231 3232 3234 3235 3235
3191 3192 3193 3195 3195 3195 3193 3194 3196 3197 3196 3196 3195 3196 3193 3192 3192 3192 3194 3196 3199 3201 3205 3208 3213 3215 3217 3218 3219 3221 3222 3223 3224 3225 3226 3227 3228 3228 3229 3229 3231 3232 3234 3234
3190 3192 3191 3191 3192 3193 3192 3193 3194 3195 3195 3195 3194 3194 3193 3192 3190 3190 3191 3191 3193 3198 3201 3206 3210 3214 3216 3218 3219 3220 3221 3222 3223 3224 3225 3225 3226 3227 3227 3228 3229 3230 3232 3233
3189 3188 3188 3187 3187 3191 3191 3192 3194 3194 3195 3196 3194 3192 3192 3191 3188 3187 3185 3188 3190 3196 3199 3202 3205 3209 3213 3216 3218 3219 3221 3222 3223 3223 3223 3223 3223 3225 3226 3226 3228 3229 3230 3231
3187 3187 3186 3185 3186 3189 3190 3191 3194 3192 3195 3193 3192 3191 3191 3192 3190 3188 3186 3187 3191 3194 3197 3200 3202 3205 3209 3213 3214 3216 3218 3219 3221 3222 3222 3222 3223 3223 3224 3226 3227 3228 3229 3229
3185 3187 3187 3185 3186 3186 3188 3190 3191 3192 3193 3190 3190 3191 3191 3192 3193 3191 3191 3191 3193 3197 3200 3201 3202 3203 3205 3208 3211 3213 3215 3217 3218 3220 3222 3222 3222 3222 3222 3224 3226 3227 3227 3227
3185 3185 3184 3184 3184 3184 3185 3187 3188 3190 3191 3189 3190 3192 3190 3192 3194 3193 3194 3194 3196 3197 3198 3199 3201 3202 3204 3207 3210 3212 3213 3214 3215 3217 3218 3220 3220 3220 3220 3221 3222 3223 3224 3224
3184 3185 3185 3186 3187 3185 3185 3186 3186 3186 3187 3187 3188 3191 3190 3191 3195 3196 3195 3195 3195 3195 3197 3198 3200 3201 3203 3205 3206 3208 3210 3211 3212 3213 3214 3215 3216 3216 3217 3217 3218 3219 3219 3221
3184 3184 3184 3185 3185 3185 3185 3184 3184 3185 3187 3187 3187 3188 3190 3193 3195 3196 3196 3196 3196 3197 3197 3197 3197 3198 3199 3201 3203 3205 3206 3207 3208 3210 3210 3211 3212 3213 3213 3213 3214 3215 3217 3217
3183 3184 3184 3184 3184 3184 3184 3184 3185 3186 3187 3187 3187 3189 3192 3194 3196 3197 3198 3199 3198 3198 3197 3195 3194 3195 3196 3197 3198 3199 3201 3202 3203 3203 3205 3207 3208 3209 3209 3211 3212 3212 3213 3213
3183 3185 3185 3184 3184 3184 3184 3184 3183 3184 3185 3187 3187 3189 3192 3195 3196 3197 3197 3196 3196 3196 3195 3194 3193 3193 3193 3192 3193 3194 3195 3197 3198 3199 3199 3201 3202 3204 3205 3205 3207 3209 3210 3208
3183 3184 3185 3186 3185 3184 3185 3183 3182 3183 3184 3187 3189 3190 3193 3195 3196 3198 3197 3197 3196 3196 3194 3192 3191 3190 3190 3190 3190 3190 3190 3191 3192 3193 3194 3195 3196 3198 3199 3199 3200 3201 3201 3202
3181 3183 3185 3185 3185 3185 3183 3182 3182 3183 3185 3187 3188 3190 3192 3194 3195 3196 3196 3197 3196 3195 3193 3191 3189 3187 3187 3186 3185 3186 3186 3187 3187 3188 3188 3189 3190 3191 3192 3192 3192 3191 3191 3192
3180 3181 3183 3184 3185 3184 3183 3183 3183 3184 3187 3187 3189 3191 3192 3192 3194 3194 3194 3195 3194 3193 3191 3189 3187 3184 3182 3182 3182 3182 3183 3183 3183 3184 3184 3184 3185 3185 3184 3185 3184 3184 3183 3183
3177 3179 3182 3182 3183 3182 3181 3182 3182 3184 3187 3187 3189 3190 3191 3192 3193 3193 3193 3192 3190 3190 3188 3186 3184 3182 3182 3181 3180 3179 3178 3178 3179 3179 3179 3179 3178 3178 3178 3177 3177 3177 3177 3175
3174 3176 3179 3179 3180 3180 3179 3180 3181 3186 3190 3187 3188 3189 3190 3191 3192 3192 3191 3190 3188 3187 3186 3184 3184 3183 3182 3181 3179 3178 3177 3176 3175 3175 3175 3175 3174 3174 3174 3172 3171 3170 3170 3169
3173 3175 3176 3178 3178 3180 3178 3180 3182 3183 3183 3185 3186 3187 3188 3189 3189 3189 3189 3188 3187 3185 3185 3184 3183 3183 3183 3181 3180 3179 3178 3177 3175 3173 3173 3172 3171 3170 3170 3169 3167 3165 3164 3162
3172 3174 3175 3177 3177 3177 3177 3178 3179 3180 3181 3182 3183 3185 3186 3187 3187 3187 3187 3186 3184 3184 3183 3183 3182 3182 3181 3180 3180 3179 3179 3177 3176 3174 3173 3171 3170 3168 3166 3164 3162 3160 3158 3157
3169 3171 3172 3175 3175 3175 3177 3177 3178 3179 3180 3180 3181 3183 3183 3184 3184 3183 3183 3183 3183 3182 3182 3181 3180 3180 3179 3178 3178 3178 3177 3176 3175 3173 3172 3170 3168 3166 3163 3161 3158 3156 3154 3152
3167 3168 3169 3171 3172 3173 3175 3175 3176 3177 3178 3178 3179 3179 3180 3180 3179 3179 3180 3180 3181 3181 3180 3179 3178 3177 3177 3176 3176 3176 3175 3175 3174 3172 3171 3169 3165 3163 3159 3155 3154 3153 3150 3148
3162 3164 3166 3167 3169 3170 3171 3172 3173 3174 3175 3175 3175 3175 3175 3175 3175 3176 3177 3178 3178 3178 3178 3177 3176 3175 3174 3173 3172 3172 3172 3172 3170 3168 3167 3166 3164 3162 3158 3156 3155 3152 3149 3147
Wind_Speed
10 9 8 10 13 14 12 13 11 8 4 2 4 10 10 11 11 18 19 21 19 19 17 16 14 12 11 9 10 8 8 6 3 2 1 1 3 4 6 5 2 2 3 4
13 11 7 9 13 17 18 11 8 10 6 1 1 3 11 15 14 14 23 20 17 20 17 18 15 15 12 10 8 8 8 6 4 3 2 0 0 1 4 4 2 1 3 4
16 8 3 8 11 16 7 5 4 10 12 9 5 5 9 17 19 17 18 20 17 18 16 15 15 13 12 11 10 9 8 6 4 3 3 2 2 3 1 1 2 0 2 3
17 13 12 14 13 11 4 7 4 11 9 5 7 2 5 14 19 22 19 17 18 16 14 15 14 11 10 13 13 11 10 7 4 3 2 2 2 5 3 0 1 3 3 2
14 7 8 12 9 12 4 5 3 5 12 7 4 3 5 9 17 17 21 21 18 15 16 13 12 11 11 11 12 12 10 9 7 4 2 1 2 4 1 2 3 3 3 2
16 15 15 8 9 8 2 4 9 4 2 4 5 4 4 5 6 13 15 17 16 18 17 17 14 13 13 16 15 13 11 10 8 5 4 3 3 3 2 2 3 3 3 2
11 17 15 12 12 6 7 7 4 1 1 2 4 3 3 6 4 6 14 19 19 18 21 23 17 15 13 17 18 14 13 12 10 8 6 4 4 3 2 2 4 6 4 5
9 11 11 10 11 9 11 11 2 2 2 3 4 4 1 3 5 10 10 14 16 18 22 25 21 18 15 17 16 15 12 11 10 8 8 6 4 4 3 3 3 5 7 8
9 5 5 10 17 14 14 10 5 4 0 3 3 6 7 6 2 7 4 11 15 17 21 28 25 23 19 17 15 14 12 10 9 9 6 5 5 5 6 6 5 5 7 8
2 2 2 6 12 12 6 6 4 4 2 3 3 5 0 7 9 6 5 6 16 19 16 21 25 25 24 23 20 18 17 13 12 8 4 3 1 5 7 7 6 7 6 6
6 4 2 5 4 9 8 9 3 4 4 2 1 2 2 6 11 7 5 9 15 15 8 5 7 21 26 27 25 22 21 20 16 12 9 6 2 4 8 9 9 9 9 9
7 4 5 1 1 5 11 10 10 7 6 6 2 1 4 2 2 8 6 4 5 3 3 4 5 12 22 23 22 20 23 20 19 17 16 14 11 9 9 11 13 14 13 13
4 2 3 4 5 4 3 8 11 11 6 8 3 3 6 3 4 5 8 11 10 8 3 5 5 6 11 20 23 23 22 19 18 19 18 18 17 15 13 13 15 17 18 17
4 6 4 7 5 4 2 3 6 6 6 9 4 9 13 6 5 8 12 13 12 9 6 4 7 7 6 10 19 22 21 21 22 20 20 20 20 19 17 16 17 19 19 20
2 4 3 2 5 8 6 4 6 6 5 5 3 13 15 12 9 10 9 8 10 12 9 11 11 8 10 13 13 19 21 20 21 21 22 21 22 22 19 17 17 19 21 22
5 3 3 6 3 6 9 10 9 8 10 6 4 18 20 16 11 8 5 6 11 13 12 9 6 5 7 9 14 18 20 21 23 25 23 25 23 22 22 22 24 24 26 25
5 3 1 4 4 2 4 7 10 7 9 7 6 10 14 16 13 9 2 5 12 13 14 13 12 9 7 8 11 12 16 19 21 25 28 26 28 31 32 33 28 32 32 34
8 5 3 3 9 3 5 4 3 3 5 5 7 7 5 11 11 5 1 6 11 15 15 17 17 16 14 12 10 12 16 17 17 20 23 25 28 27 28 31 33 32 42 37
11 8 6 3 5 7 5 10 7 8 7 8 10 7 5 7 11 2 5 10 12 17 18 19 18 16 15 14 13 13 14 14 15 17 19 19 23 27 28 28 26 30 34 35
16 13 10 4 3 4 7 12 12 11 7 9 9 7 7 9 8 5 11 13 15 18 20 10 7 7 7 9 9 8 8 10 12 14 16 18 20 22 26 26 25 28 27 27
12 11 9 10 5 5 7 9 12 9 3 8 7 7 9 8 9 12 14 16 18 19 4 6 6 5 7 8 9 9 9 10 9 9 12 15 17 19 21 24 26 27 28 29
10 8 8 7 6 5 7 7 9 10 6 5 6 10 12 11 12 15 17 17 18 9 4 3 5 4 5 7 8 10 11 10 9 8 8 9 12 14 15 17 19 20 21 22
7 8 7 4 4 4 4 9 10 11 13 12 10 11 12 14 16 18 20 18 11 3 3 4 6 6 5 6 8 10 11 11 7 7 7 8 8 9 10 11 14 15 18 20
6 6 6 6 7 7 4 4 5 6 7 10 11 12 14 17 18 19 16 8 5 5 5 6 8 7 7 8 9 9 11 11 11 11 11 10 11 13 15 15 13 11 13 15
11 11 10 10 10 10 8 6 6 6 5 8 9 12 15 15 11 9 6 6 7 8 6 8 10 9 11 10 10 11 11 11 11 12 12 13 14 16 20 15 9 13 15 13
17 16 15 13 12 12 10 9 8 7 6 6 5 6 8 11 11 10 9 8 7 6 8 11 11 13 15 15 13 11 12 13 13 14 14 13 14 15 15 12 12 15 12 13
Wind_Direction
244 272 285 313 320 319 314 308 301 293 332 336 244 226 217 192 170 184 180 172 162 154 153 153 155 145 135 142 142 134 118 119 116 114 176 149 214 231 234 267 298 348 334 347
248 257 292 311 316 313 305 300 287 256 253 178 287 226 223 220 180 172 185 186 179 173 181 171 167 153 142 145 158 152 136 131 121 100 112 147 282 328 237 232 173 300 319 349
250 239 300 318 304 328 334 338 289 237 241 232 283 257 208 196 200 191 187 186 180 190 192 186 173 153 153 155 168 169 157 142 127 105 106 108 144 205 210 138 160 317 326 348
250 251 270 287 303 335 24 15 206 224 232 235 231 320 267 216 209 212 201 189 179 169 181 194 189 168 148 164 176 177 167 146 130 116 119 149 188 202 217 293 20 353 321 331
230 249 259 258 303 333 356 41 74 188 221 257 277 259 248 216 220 213 209 208 196 178 170 179 172 159 156 167 174 173 165 147 144 144 122 112 152 196 204 265 317 329 291 298
229 233 250 273 290 314 259 85 91 129 166 266 260 267 282 328 303 210 198 204 198 202 202 182 183 187 180 168 166 164 159 148 143 142 132 132 162 172 201 226 272 253 266 234
220 226 248 256 268 255 212 168 95 90 240 294 297 268 281 329 291 217 221 218 215 201 211 192 190 194 192 169 165 166 161 148 144 154 153 157 180 183 198 221 251 230 252 233
174 238 243 241 227 231 203 216 259 331 303 339 282 246 11 359 289 245 249 246 233 212 200 191 181 196 200 181 175 166 167 159 144 146 170 176 178 195 214 226 216 221 223 225
183 223 235 249 223 211 215 230 214 115 145 293 268 300 63 66 331 311 264 202 207 181 200 191 192 192 197 195 203 187 183 183 166 149 133 174 193 197 204 218 219 229 228 217
214 280 54 150 148 188 222 210 156 147 171 257 279 292 35 95 42 29 43 203 179 185 192 198 203 193 200 206 215 212 204 194 184 189 170 125 215 220 227 233 229 224 232 240
208 257 303 161 187 200 197 197 175 162 192 271 282 52 164 131 46 60 77 137 174 199 223 200 213 206 200 208 207 216 212 210 213 234 246 231 251 255 230 236 237 233 232 239
200 265 322 98 156 234 212 223 230 224 215 220 188 135 241 234 54 60 117 170 169 186 195 202 182 214 205 208 213 215 219 211 214 217 232 242 244 250 253 237 233 235 234 239
183 222 136 112 121 158 185 227 246 223 220 196 187 160 196 158 108 84 86 76 62 58 154 201 196 177 200 214 211 214 209 212 216 219 227 238 231 224 241 246 242 236 235 239
176 174 205 218 201 190 177 211 202 169 177 184 194 180 183 181 134 106 79 61 42 23 356 307 257 240 226 206 218 219 214 218 222 238 232 233 232 227 233 240 242 242 245 246
151 95 82 199 216 210 207 214 210 220 228 200 139 162 173 180 168 140 107 62 22 359 340 316 303 278 247 240 218 209 217 220 223 224 230 235 237 236 230 238 245 248 247 248
175 135 95 113 95 205 222 227 242 247 223 207 161 160 171 180 177 159 104 33 358 353 344 346 339 284 255 250 238 232 222 230 229 227 237 232 226 234 234 233 247 248 252 255
162 207 184 223 341 263 209 233 241 238 193 186 172 178 168 182 182 169 129 345 345 349 340 332 328 327 312 268 254 250 240 243 236 234 239 243 242 241 244 252 256 260 265 258
177 211 295 290 330 254 260 237 204 176 154 188 176 180 204 200 198 192 107 325 334 336 328 321 313 308 303 298 286 267 258 255 255 254 251 245 246 248 250 257 272 269 256 257
218 216 249 261 279 268 242 211 214 204 195 203 176 205 248 215 204 250 317 311 314 323 321 315 307 306 303 297 294 289 287 284 278 274 272 269 259 264 269 274 277 277 261 258
223 226 225 224 223 229 234 211 214 210 209 217 209 241 226 223 216 272 290 308 313 317 316 324 342 352 347 347 349 336 308 287 276 275 275 279 279 277 278 284 279 275 278 280
180 188 211 227 229 249 260 231 216 183 213 216 232 244 227 221 248 269 289 303 310 314 304 7 359 13 17 22 23 21 14 354 333 307 292 286 285 284 280 281 283 286 288 286
187 191 207 226 221 244 232 216 197 206 222 224 238 236 220 225 254 273 287 294 300 294 284 346 336 328 347 2 14 15 12 7 354 340 321 305 301 300 296 290 286 284 283 284
169 186 190 196 224 244 211 217 233 243 255 266 221 220 234 247 260 271 278 284 285 261 301 347 341 330 320 329 347 359 4 12 8 345 330 321 321 319 315 310 308 305 302 298
191 204 214 232 235 202 199 210 212 211 200 190 199 218 232 245 254 265 277 260 258 293 293 319 319 317 315 309 315 329 342 357 4 354 347 349 348 341 337 325 323 315 312 307
219 227 233 237 241 243 258 241 206 218 235 236 231 229 236 246 256 264 241 239 252 255 271 300 310 310 310 311 293 298 316 334 336 331 338 342 344 345 334 311 321 340 328 314
235 237 239 251 253 250 248 240 248 250 261 275 276 269 268 265 265 242 232 228 239 252 282 284 287 298 303 296 294 296 302 315 318 313 323 327 336 360 360 19 10 355 1 5